Hourly Weather Ryzowka

Today, 2 July, Thursday

Time Temperature Precipitation Wind Pressure Humidity
00:00 +17°C° 0.1 mm 2 mps 744 mmHg 94%
01:00 +17°C° 0.1 mm 2 mps 744 mmHg 95%
02:00 +16°C° 0 mm 1 mps 744 mmHg 96%
03:00 +16°C° 0 mm 1 mps 744 mmHg 96%
04:00 +16°C° 0 mm 2 mps 743 mmHg 97%
05:00 +16°C° 0 mm 2 mps 743 mmHg 97%
06:00 +18°C° 0.1 mm 2 mps 743 mmHg 95%
07:00 +19°C° 0.1 mm 2 mps 743 mmHg 92%
08:00 +20°C° 0 mm 2 mps 743 mmHg 89%
09:00 +21°C° 0.4 mm 3 mps 743 mmHg 85%
10:00 +24°C° 0.4 mm 3 mps 743 mmHg 80%
11:00 +25°C° 0.4 mm 4 mps 743 mmHg 75%
12:00 +25°C° 0.2 mm 5 mps 743 mmHg 72%
13:00 +26°C° 0.2 mm 5 mps 744 mmHg 69%
14:00 +26°C° 0.2 mm 6 mps 744 mmHg 66%
15:00 +25°C° 0.5 mm 5 mps 744 mmHg 70%
16:00 +25°C° 0.5 mm 5 mps 744 mmHg 74%
17:00 +23°C° 0.5 mm 5 mps 744 mmHg 78%
18:00 +22°C° 0 mm 4 mps 745 mmHg 80%
19:00 +20°C° 0 mm 3 mps 745 mmHg 82%
20:00 +20°C° 0 mm 1 mps 745 mmHg 84%
21:00 +19°C° 0 mm 1 mps 745 mmHg 87%
22:00 +18°C° 0 mm 1 mps 746 mmHg 89%
23:00 +15°C° 0 mm 0 mps 746 mmHg 91%

Tomorrow, 3 July, Friday

Time Temperature Precipitation Wind Pressure Humidity
00:00 +14°C° 0 mm 0 mps 746 mmHg 91%
01:00 +15°C° 0 mm 1 mps 746 mmHg 91%
02:00 +15°C° 0 mm 1 mps 746 mmHg 92%
03:00 +15°C° 0 mm 1 mps 746 mmHg 92%
04:00 +15°C° 0 mm 1 mps 746 mmHg 92%
05:00 +15°C° 0 mm 1 mps 746 mmHg 92%
06:00 +18°C° 0 mm 1 mps 746 mmHg 89%
07:00 +18°C° 0 mm 2 mps 746 mmHg 86%
08:00 +19°C° 0 mm 2 mps 746 mmHg 83%
09:00 +20°C° 0.2 mm 2 mps 746 mmHg 80%
10:00 +21°C° 0.2 mm 2 mps 746 mmHg 76%
11:00 +23°C° 0.2 mm 2 mps 746 mmHg 73%
12:00 +24°C° 0.4 mm 2 mps 746 mmHg 72%
13:00 +24°C° 0.4 mm 2 mps 746 mmHg 71%
14:00 +24°C° 0.4 mm 2 mps 745 mmHg 70%
15:00 +24°C° 0.4 mm 3 mps 746 mmHg 73%
16:00 +24°C° 0.4 mm 3 mps 746 mmHg 76%
17:00 +22°C° 0.4 mm 3 mps 746 mmHg 79%
18:00 +21°C° 0.2 mm 3 mps 746 mmHg 83%
19:00 +20°C° 0.2 mm 3 mps 746 mmHg 87%
20:00 +19°C° 0.2 mm 3 mps 746 mmHg 91%
21:00 +18°C° 0 mm 3 mps 747 mmHg 93%
22:00 +16°C° 0 mm 3 mps 747 mmHg 95%
23:00 +14°C° 0 mm 3 mps 748 mmHg 96%

Day after tomorrow, 4 July, Saturday

Time Temperature Precipitation Wind Pressure Humidity
00:00 +13°C° 0 mm 3 mps 748 mmHg 96%
01:00 +12°C° 0 mm 3 mps 748 mmHg 96%
02:00 +12°C° 0 mm 2 mps 748 mmHg 96%
03:00 +12°C° 0 mm 2 mps 749 mmHg 95%
04:00 +12°C° 0 mm 2 mps 749 mmHg 94%
05:00 +12°C° 0 mm 1 mps 749 mmHg 93%
06:00 +13°C° 0 mm 1 mps 749 mmHg 88%
07:00 +15°C° 0 mm 1 mps 749 mmHg 82%
08:00 +17°C° 0 mm 2 mps 750 mmHg 77%
09:00 +19°C° 0 mm 2 mps 750 mmHg 72%
10:00 +20°C° 0 mm 3 mps 750 mmHg 67%
11:00 +21°C° 0 mm 3 mps 750 mmHg 62%
12:00 +22°C° 0 mm 4 mps 750 mmHg 62%
13:00 +23°C° 0 mm 4 mps 749 mmHg 62%
14:00 +25°C° 0 mm 4 mps 749 mmHg 63%
15:00 +23°C° 0.2 mm 4 mps 749 mmHg 66%
16:00 +23°C° 0.2 mm 4 mps 749 mmHg 69%
17:00 +24°C° 0.2 mm 3 mps 749 mmHg 72%
18:00 +22°C° 0.1 mm 3 mps 749 mmHg 76%
19:00 +21°C° 0.1 mm 2 mps 748 mmHg 81%
20:00 +21°C° 0.1 mm 1 mps 748 mmHg 85%
21:00 +20°C° 0 mm 1 mps 749 mmHg 87%
22:00 +19°C° 0 mm 1 mps 749 mmHg 89%
23:00 +18°C° 0 mm 1 mps 749 mmHg 91%

5 July, Sunday

Time Temperature Precipitation Wind Pressure Humidity
00:00 +18°C° 0 mm 1 mps 748 mmHg 92%
01:00 +16°C° 0 mm 2 mps 748 mmHg 93%
02:00 +16°C° 0 mm 2 mps 748 mmHg 94%
03:00 +16°C° 0 mm 2 mps 748 mmHg 94%
04:00 +16°C° 0 mm 3 mps 748 mmHg 94%
05:00 +16°C° 0 mm 3 mps 748 mmHg 95%
06:00 +17°C° 0 mm 4 mps 747 mmHg 89%
07:00 +19°C° 0 mm 4 mps 747 mmHg 84%
08:00 +20°C° 0 mm 5 mps 747 mmHg 78%
09:00 +21°C° 0.2 mm 5 mps 747 mmHg 77%
10:00 +22°C° 0.2 mm 6 mps 747 mmHg 75%
11:00 +23°C° 0.2 mm 6 mps 747 mmHg 74%
12:00 +22°C° 0.5 mm 6 mps 747 mmHg 78%
13:00 +21°C° 0.5 mm 5 mps 746 mmHg 82%
14:00 +20°C° 0.5 mm 5 mps 746 mmHg 86%
15:00 +21°C° 0 mm 5 mps 746 mmHg 83%
16:00 +21°C° 0 mm 5 mps 746 mmHg 81%
17:00 +21°C° 0 mm 5 mps 746 mmHg 78%
18:00 +21°C° 0.1 mm 5 mps 745 mmHg 82%
19:00 +20°C° 0.1 mm 4 mps 745 mmHg 85%
20:00 +20°C° 0.1 mm 3 mps 745 mmHg 88%
21:00 +19°C° 0 mm 4 mps 745 mmHg 90%
22:00 +19°C° 0 mm 4 mps 745 mmHg 91%
23:00 +17°C° 0 mm 5 mps 744 mmHg 93%

6 July, Monday

Time Temperature Precipitation Wind Pressure Humidity
00:00 +17°C° 0 mm 5 mps 744 mmHg 93%
01:00 +17°C° 0 mm 5 mps 744 mmHg 93%
02:00 +17°C° 0 mm 5 mps 744 mmHg 94%
03:00 +17°C° 0 mm 6 mps 743 mmHg 93%
04:00 +17°C° 0 mm 6 mps 743 mmHg 92%
05:00 +17°C° 0 mm 6 mps 743 mmHg 91%
06:00 +19°C° 0.1 mm 6 mps 743 mmHg 90%
07:00 +19°C° 0.1 mm 6 mps 743 mmHg 90%
08:00 +19°C° 0.1 mm 6 mps 743 mmHg 89%
09:00 +19°C° 0.1 mm 6 mps 743 mmHg 87%
10:00 +20°C° 0.1 mm 5 mps 743 mmHg 85%
11:00 +20°C° 0.1 mm 5 mps 744 mmHg 82%
12:00 +20°C° 0 mm 5 mps 744 mmHg 81%
13:00 +20°C° 0 mm 4 mps 744 mmHg 80%
14:00 +20°C° 0 mm 4 mps 744 mmHg 79%
15:00 +20°C° 0 mm 4 mps 744 mmHg 77%
16:00 +21°C° 0 mm 4 mps 744 mmHg 75%
17:00 +21°C° 0 mm 4 mps 744 mmHg 73%
18:00 +21°C° 0.1 mm 4 mps 744 mmHg 76%
19:00 +20°C° 0.1 mm 4 mps 744 mmHg 79%
20:00 +20°C° 0.1 mm 3 mps 744 mmHg 82%
21:00 +18°C° 0.1 mm 3 mps 744 mmHg 86%
22:00 +17°C° 0.1 mm 3 mps 744 mmHg 89%
23:00 +16°C° 0.1 mm 3 mps 745 mmHg 92%

7 July, Tuesday

Time Temperature Precipitation Wind Pressure Humidity
00:00 +14°C° 0 mm 3 mps 745 mmHg 92%
01:00 +14°C° 0 mm 2 mps 745 mmHg 92%
02:00 +13°C° 0 mm 2 mps 746 mmHg 93%
03:00 +13°C° 0 mm 2 mps 746 mmHg 93%
04:00 +12°C° 0 mm 2 mps 746 mmHg 93%
05:00 +11°C° 0 mm 3 mps 746 mmHg 94%
06:00 +12°C° 0 mm 3 mps 747 mmHg 88%
07:00 +14°C° 0 mm 4 mps 747 mmHg 81%
08:00 +15°C° 0 mm 5 mps 748 mmHg 75%
09:00 +17°C° 0 mm 4 mps 748 mmHg 72%
10:00 +18°C° 0 mm 4 mps 748 mmHg 69%
11:00 +19°C° 0 mm 4 mps 748 mmHg 66%
12:00 +19°C° 0.1 mm 4 mps 748 mmHg 65%
13:00 +19°C° 0.1 mm 4 mps 748 mmHg 64%
14:00 +20°C° 0.1 mm 4 mps 748 mmHg 63%
15:00 +19°C° 0.3 mm 4 mps 749 mmHg 67%
16:00 +18°C° 0.3 mm 4 mps 749 mmHg 72%
17:00 +17°C° 0.3 mm 4 mps 749 mmHg 77%
18:00 +17°C° 0 mm 3 mps 749 mmHg 78%
19:00 +16°C° 0 mm 3 mps 749 mmHg 79%
20:00 +14°C° 0 mm 3 mps 749 mmHg 80%
21:00 +13°C° 0 mm 3 mps 750 mmHg 82%
22:00 +13°C° 0 mm 2 mps 750 mmHg 84%
23:00 +12°C° 0 mm 2 mps 750 mmHg 86%
Show more